Regional Weather Roundup
Issued by NWS

Home | Current Version | Previous Version | Text Only | Print | Product List | Glossary Off
Versions: 1 2 3 4 5 6 7 8 9 10 11 12 13 14 15 16 17 18 19 20 21 22 23 24 25 26 27 28 29 30 31 32 33 34 35 36 37 38 39 40 41 42 43 44 45 46 47 48 49 50

000
ASUS43 KLMK 020710
RWRKY
KENTUCKY REGIONAL WEATHER ROUNDUP
NATIONAL WEATHER SERVICE LOUISVILLE KY
300 AM EDT WED SEP 02 2015

NOTE "FAIR" INDICATES FEW OR NO CLOUDS BELOW 12,000 FEET
WITH NO SIGNIFICANT WEATHER AND/OR OBSTRUCTIONS TO VISIBILITY.

KYZ001>023-026-027-061>063-070>075-020800-
WESTERN AND SOUTH CENTRAL KENTUCKY

CITY           SKY/WX    TMP DP  RH WIND       PRES   REMARKS
PADUCAH        MOCLDY    69  67  93 CALM      30.07F FOG
HENDERSON      CLEAR     66  63  88 CALM      30.07F
OWENSBORO      CLEAR     70  68  93 CALM      30.10S
HOPKINSVILLE   CLOUDY    72  69  88 NE5       30.08F
BOWLING GREEN  CLEAR     70  66  87 CALM      30.10F
GLASGOW        PTCLDY    66  66 100 CALM      30.11F FOG
$$

KYZ024-025-028>034-038-045-046-053-020800-
NORTH CENTRAL KENTUCKY

CITY           SKY/WX    TMP DP  RH WIND       PRES   REMARKS
LOUISVILLE/SDF CLEAR     75  68  78 CALM      30.09F
LOUISVILLE/LOU CLEAR     71  70  96 CALM      30.10F FOG
FORT KNOX      CLEAR     66  64  93 CALM      30.09F
$$

KYZ035>037-039>044-047>052-055>060-089>105-020800-
NORTHEAST KENTUCKY

CITY           SKY/WX    TMP DP  RH WIND       PRES   REMARKS
LEXINGTON      CLEAR     67  64  90 S5        30.13S
COVINGTON      CLEAR     70  67  90 CALM      30.11F
FRANKFORT      CLEAR     69  66  90 CALM      30.11S
$$

KYZ054-064>069-076>088-106>120-020800-
SOUTHEAST KENTUCKY

CITY           SKY/WX    TMP DP  RH WIND       PRES   REMARKS
JACKSON        CLEAR     71  67  87 CALM      30.14F
LONDON         CLEAR     68  63  84 CALM      30.14F
SOMERSET       CLEAR     64  64 100 CALM      30.14F FOG
MIDDLESBORO    CLEAR     66  65  99 CALM      30.16S
MONTICELLO     SUNNY     64  64 100 CALM      30.16S FOG
$$




USA.gov is the U.S. government's official web portal to all federal, state and local government web resources and services.